Location: Newark
(30.0333°N, 31.2167°E)
Time: 15:17:07
(UTC+00:00)

Tiros 1 despin weight - Pass Details

Date: 28 January 2020
Orbit: 594 x 642 km, 48.2° (Epoch: 24 February)

Event Time Altitude Azimuth Distance (km) Brightness Sun altitude
Rises 12:15:52 0° 324° (NW) 2,896 ? 32.7°
Reaches altitude 10° 12:19:51 10° 358° (N) 2,001 ? 32.2°
Maximum altitude 12:21:23 11° 18° (NNE) 1,910 ? 32.0°
Drops below altitude 10° 12:22:55 10° 38° (NE) 2,009 ? 31.8°
Sets 12:26:56 0° 72° (ENE) 2,926 ? 31.3°
